COSMOS 1275 DEB, 12699

Orbit data source: Space-Track

COSMOS 1275 DEB, 12699 is space debris in LEO originally from a launch on Thu, 04 Jun 1981 UTC launched from the Plesetsk Missile And Space Complex (PKMTR). Debris objects in space refer to the collection of defunct objects orbiting the Earth. Examples of debris include non-operational satellites, rocket bodies, and fragments generated from explosions, collisions, or faulty payload assembly.

Loading next visibility...
Identifier
12699, 1981-053AT
Orbit
LEO
Country
Flag of CISCIS
Related business
Manufacturer
Unknown
Mission
Spacecraft
Bus & Motor
Unknown
Mass
Unknown
Launch date (UTC)
1981-06-04 (45 years ago)
Launch vehicle
Unknown
Launch site
Plesetsk Missile And Space Complex (PKMTR)
Object type
Payload
Rocket body
Debris
Shape & HBR
Unknown shape, 0.1 m
Radar Cross Section
Medium (>0.1 m² and <1 m²)

Expand to show TLE details & history
Last TLE update: 2 days ago

TLE from 2 days ago
0 COSMOS 1275 DEB
1 12699U 81053AT  26171.42366689  .00000785  00000-0  66677-3 0  9990
2 12699  82.9472 323.2152 0084519  55.7756 333.1903 13.84532590245442
Epoch: 2026-06-20T10:10Z
TLE epoch observation values (Epoch: 2026-06-20T10:10:04.819Z)
Latitude
28.33327°
Longitude
-94.13853°
Altitude
896.186 km
Speed
7.434 km/s
True Right ascension
21h 48m 04s
True Declination
28° 11' 33"
Sunlit
Object was in daylight at epoch
Visualization orbit readout
Latitude
Unknown
Longitude
Unknown
Altitude
Unknown
Speed
Unknown
Apparent Right ascension
Unknown
Apparent Declination
Unknown
Sunlit
N/A
Visualization observer readout
Local Sidereal Time
17:33:36
Azimuth
Unknown
Elevation
Unknown
Doppler factor
Unknown
Orbital elements
Apogee altitude
1,006.884 km
Perigee altitude
883.095 km
Semi-major axis
7,323.126 km
Eccentricity
0.00845
Inclination
82.9472°
RAAN
323.2152°
Arg. of periapsis
55.7756°
True anomaly
332.74932°
Mean anomaly
333.1903°
Eccentric anomaly
332.97023°
Mean motion
3.46337 °/min
Orbital period
103.95 mins
BSTAR
0.00066677
Loading maneuver chart data...
Computing Atmospheric mass density...
Loading historical data...
Loading historical data...
Loading historical data...
Loading historical data...
Loading historical data...
Loading historical data...
Loading historical data...

Documentation

Showing up to 5 results
|